Location: Akho
(42.3047°N, 44.1844°E)
Time: 13:33:10
(UTC+00:00)

Spot 4 Rocket - Pass Details

Date: 07 June 2020
Orbit: 776 x 782 km, 98.7° (Epoch: 13 July)

Event Time Altitude Azimuth Distance (km) Brightness Sun altitude
Rises 00:04:32 0° 14° (NNE) 3,267 8.4 -12.5°
Reaches altitude 10° 00:06:51 10° 16° (NNE) 2,334 7.6 -12.2°
Maximum altitude 00:12:01 81° 104° (ESE) 792 4.1 -11.6°
Drops below altitude 10° 00:17:08 10° 191° (SSW) 2,317 6.0 -10.9°
Enters shadow 00:17:22 - 192° (SSW) 2,413 6.1 -10.9°
